Theta_e
284 285 284 284 285 284 284 283 280 277 278 282 283 286 287 287 288 287 286 289 290 291 292 293 294 295 296 297 299 300 304 306 308 313 317 315 314 313
283 283 283 283 283 284 283 283 282 280 277 281 282 284 285 285 285 285 285 288 288 289 290 291 292 293 294 296 297 298 300 303 306 309 313 315 314 313
282 281 281 282 281 281 281 281 281 280 277 279 281 282 282 282 283 283 284 283 284 287 288 289 291 292 293 294 295 296 297 299 302 304 308 310 313 313
280 280 279 280 279 279 279 279 278 279 277 275 278 278 279 280 280 280 282 283 283 285 288 289 290 291 291 292 293 294 295 296 297 300 302 306 309 310
279 279 278 278 277 278 277 277 277 277 277 276 275 277 278 278 277 278 279 280 282 284 285 285 286 288 289 290 291 292 293 293 294 296 298 300 303 307
279 279 278 277 276 276 275 275 276 275 275 274 274 274 275 276 277 275 275 277 277 280 281 281 283 285 286 288 289 291 292 292 293 293 296 298 300 303
278 277 277 277 277 276 275 275 275 273 273 272 272 272 273 273 273 275 274 275 276 277 277 278 279 279 280 283 283 285 288 290 291 292 294 295 297 299
276 276 276 276 276 277 277 277 276 273 271 271 272 271 272 273 274 274 274 273 271 277 276 275 278 277 279 280 283 285 286 287 287 291 292 292 294 296
275 275 274 275 275 274 275 276 276 277 278 275 273 273 273 274 274 273 273 273 273 276 276 274 277 276 279 280 283 284 284 285 286 287 289 291 292 293
275 274 274 274 274 274 274 274 275 276 276 276 275 275 276 276 276 275 275 275 276 277 278 273 277 276 278 278 282 282 283 283 284 285 287 288 291 292
275 275 274 274 275 277 276 274 274 275 279 281 281 281 281 281 280 278 275 273 271 273 277 275 275 275 276 276 278 281 282 283 283 284 285 287 288 290
275 275 277 277 278 278 276 275 273 273 274 274 275 275 277 277 278 276 275 272 272 271 275 274 273 273 271 275 276 277 277 280 281 283 284 285 287 287
274 274 275 277 277 278 278 273 272 274 273 271 270 271 272 273 274 275 276 274 272 272 276 276 273 273 272 271 274 276 276 276 277 278 280 281 283 287
273 274 275 277 277 276 274 274 275 273 268 268 267 268 269 269 271 272 273 273 274 273 275 275 273 272 271 270 270 274 275 275 276 275 276 278 281 283
274 275 277 275 274 272 272 272 270 268 266 265 265 266 268 269 270 270 271 272 272 273 275 275 274 273 273 271 270 271 272 274 275 274 275 274 274 277
275 273 272 272 271 270 268 269 268 267 266 265 266 267 268 267 267 268 268 269 269 270 273 275 274 274 272 272 272 271 272 271 273 274 274 274 275 275
274 269 267 267 266 266 266 266 267 266 265 266 265 264 265 266 266 267 268 267 266 267 269 272 274 275 274 273 270 271 271 271 273 273 273 271 273 275
268 265 265 264 264 264 264 264 265 265 265 265 264 265 264 264 265 266 267 266 265 266 267 270 271 271 272 273 276 272 272 272 273 273 273 271 271 275
264 263 263 263 263 263 263 263 263 264 264 264 264 264 264 264 264 264 265 266 265 266 267 268 268 268 267 267 273 279 274 273 273 272 272 271 271 274
262 261 261 261 262 262 262 262 262 263 262 263 262 262 263 263 263 264 265 264 264 265 265 266 267 269 269 269 270 274 280 277 275 274 272 274 277 279
260 260 261 261 261 261 261 261 261 261 261 261 261 262 263 263 263 264 264 264 264 264 264 265 268 272 272 273 272 274 277 282 280 277 275 274 274 277
260 259 259 260 260 259 259 259 259 260 260 260 261 261 262 263 263 263 264 264 264 264 265 267 269 271 271 272 272 274 275 278 278 280 281 279 278 276
259 259 259 259 259 258 258 258 258 259 259 259 260 261 262 261 262 264 264 264 264 265 265 266 268 270 271 272 273 273 274 275 274 272 273 279 280 281
Wind_Speed
4 4 4 3 4 4 5 5 6 7 10 6 6 10 9 10 12 13 14 18 26 28 28 27 26 26 26 25 25 24 25 25 26 25 22 20 20 20
4 6 5 4 5 5 5 5 5 7 10 9 10 12 12 12 13 13 14 19 23 25 27 27 27 28 27 26 26 25 25 25 25 27 24 21 21 22
5 5 6 6 5 6 6 6 6 6 11 14 10 11 15 15 14 14 13 14 12 22 26 28 28 28 28 28 27 27 26 26 25 26 27 25 24 24
6 7 7 6 7 7 6 8 8 8 9 17 13 11 12 14 15 17 13 12 13 20 26 25 25 26 26 26 26 27 26 26 26 25 25 27 27 25
6 7 8 8 7 6 7 8 7 8 9 10 15 10 11 11 13 14 14 14 11 21 25 27 27 28 27 28 28 28 26 25 25 24 25 25 26 26
7 7 8 8 8 8 8 9 9 8 9 10 12 12 11 11 11 12 12 10 12 11 17 22 23 23 21 25 25 23 21 23 24 26 24 23 23 24
8 8 8 8 13 12 8 8 9 9 9 10 12 12 11 11 11 11 12 12 12 11 12 10 8 11 11 19 22 25 27 26 24 23 21 23 24 24
9 8 8 9 11 14 15 17 14 11 11 10 12 13 15 14 12 12 11 12 14 8 10 13 10 11 11 10 22 25 26 28 30 27 24 25 23 23
9 9 9 7 9 10 13 17 17 19 21 16 17 16 17 14 15 15 14 14 15 13 14 16 10 12 10 12 24 27 29 30 30 29 30 26 24 24
9 9 10 11 10 11 12 13 13 13 15 13 16 17 17 16 17 17 17 18 15 12 11 15 11 13 10 10 24 28 29 29 30 31 29 31 27 25
9 10 10 10 14 18 13 13 14 14 16 23 24 28 30 29 22 13 10 12 14 13 9 12 12 14 12 12 11 24 21 20 22 28 26 30 30 28
8 10 13 13 17 20 13 11 13 14 16 15 14 17 20 18 26 16 11 13 13 14 6 8 11 10 10 9 7 6 9 23 28 26 26 28 29 14
7 7 6 15 18 18 21 12 13 17 16 12 12 11 11 11 10 10 11 10 11 13 11 11 10 10 9 14 11 11 10 11 12 16 25 29 30 26
8 7 8 17 15 21 18 19 21 17 8 8 9 10 10 10 10 10 13 13 12 16 14 14 12 12 12 14 15 11 11 11 11 12 13 19 27 31
7 13 16 12 16 13 15 18 11 6 7 8 9 9 9 10 14 13 13 15 15 15 11 13 12 12 11 13 15 13 17 11 11 12 12 14 13 13
13 3 6 10 12 11 7 8 6 6 6 8 8 10 10 10 10 9 11 11 12 12 12 12 13 13 12 13 13 15 13 11 10 11 11 13 14 14
5 2 2 4 5 5 5 5 6 6 7 7 8 10 10 10 10 10 10 11 12 12 12 10 10 12 12 15 14 15 15 14 13 12 12 13 14 14
1 2 4 4 5 5 6 6 6 7 6 7 9 9 10 10 11 11 10 10 12 12 12 11 11 11 11 13 21 15 15 14 13 12 12 12 13 12
3 3 4 4 5 5 6 6 7 7 8 8 8 9 9 10 12 11 11 11 11 12 11 11 11 11 13 14 13 21 13 13 11 11 9 10 12 13
2 4 4 4 5 5 6 6 7 7 7 8 8 9 9 10 11 11 11 12 12 12 12 11 11 10 12 13 16 19 22 12 10 11 10 9 12 24
3 4 4 4 5 5 6 6 7 7 8 9 9 9 9 10 11 11 11 16 16 12 13 13 12 20 14 14 12 12 8 17 20 12 8 8 9 11
4 4 4 5 5 5 5 6 7 8 8 8 8 9 9 10 11 12 11 12 12 11 13 12 14 12 11 12 12 10 9 4 7 11 8 9 5 3
5 4 4 5 5 5 5 6 7 7 7 8 8 9 9 10 11 11 11 12 12 12 12 13 12 11 11 11 10 9 11 6 4 4 4 17 10 10
Wind_Direction
349 355 339 337 328 320 313 316 315 314 312 319 312 337 319 315 313 314 303 303 306 307 305 305 305 301 300 297 296 296 292 289 286 280 251 240 243 254
349 338 338 335 322 311 312 310 299 290 289 310 301 310 315 310 306 310 304 306 301 301 300 301 301 300 298 295 293 291 290 288 285 282 273 253 248 248
321 328 317 324 318 317 315 306 298 297 289 295 299 306 309 304 310 309 308 303 296 306 303 296 296 295 295 295 294 290 287 286 284 281 279 272 260 253
320 315 311 320 310 311 307 306 302 301 295 295 302 306 304 308 300 302 306 306 306 305 296 294 291 291 292 293 293 291 287 283 282 279 278 279 268 263
300 302 304 309 304 304 302 301 305 303 296 290 296 300 301 306 303 295 295 298 296 320 310 307 309 308 306 298 293 290 289 289 283 275 274 272 273 263
289 286 289 290 290 303 304 300 300 302 301 295 296 302 304 303 297 305 301 303 303 305 310 301 302 299 310 321 315 300 280 281 281 277 276 271 268 267
284 283 278 290 294 286 288 292 303 300 299 296 292 296 302 305 302 305 297 300 299 299 300 303 309 307 300 307 304 302 307 308 299 295 287 278 272 267
280 281 286 286 283 292 293 292 289 290 284 284 288 286 290 293 291 293 296 301 298 287 295 296 296 294 295 291 290 295 295 297 290 293 287 285 285 274
279 283 285 285 291 290 295 295 288 281 279 282 279 274 282 286 290 287 283 281 280 284 287 289 294 283 282 287 296 296 296 296 293 289 289 283 281 280
274 278 281 287 287 296 288 280 278 272 266 265 266 272 273 275 271 273 272 269 270 272 265 281 291 286 289 283 288 293 289 290 291 290 284 279 281 278
275 273 272 281 283 284 293 292 287 283 284 293 297 297 296 296 300 296 292 293 287 283 284 287 291 293 292 291 283 281 290 319 310 307 301 296 281 272
271 273 266 275 293 297 299 302 309 310 304 301 302 297 293 286 287 286 286 281 283 283 276 288 294 300 299 286 277 315 302 298 299 298 302 294 294 267
275 281 284 289 295 307 312 318 303 305 315 313 303 296 294 293 290 285 284 285 285 281 289 284 285 286 272 289 289 285 285 286 284 286 294 296 297 296
274 278 282 290 308 313 316 306 313 325 308 304 305 302 304 304 302 302 298 289 279 280 288 283 280 277 280 282 286 285 282 278 278 279 281 282 289 281
271 271 296 313 318 313 305 310 326 309 307 307 305 300 299 305 304 299 297 288 284 280 278 273 271 274 271 275 281 285 286 284 277 274 276 280 278 274
268 307 296 309 309 301 301 312 307 303 306 300 302 307 306 304 298 299 298 302 299 294 282 269 268 268 271 268 277 280 276 275 276 272 269 271 275 271
278 228 285 309 302 292 297 300 300 304 304 306 312 304 300 303 302 304 301 301 293 299 302 295 280 269 265 267 270 269 276 274 271 272 269 267 266 269
355 280 284 284 284 293 299 301 301 301 308 314 299 298 303 304 304 303 299 300 298 298 298 302 302 295 280 261 245 264 268 266 273 269 261 264 272 272
221 256 267 271 278 287 291 294 297 300 308 294 300 301 302 302 305 301 301 301 299 297 297 298 297 293 293 288 288 263 253 265 268 267 245 247 259 269
190 247 253 263 270 278 286 291 295 299 299 298 302 298 300 302 306 303 301 305 301 300 298 294 288 288 289 293 299 291 276 262 254 259 254 249 249 248
221 239 244 256 267 273 277 283 285 288 293 295 291 298 301 302 303 302 303 305 302 300 299 297 295 294 286 283 274 279 290 264 240 247 250 249 257 262
234 235 241 251 256 264 273 280 284 287 290 291 293 297 298 299 304 301 305 306 304 300 297 296 299 296 292 285 290 300 305 306 20 19 228 347 310 235
234 230 240 250 252 260 265 272 275 280 284 288 292 294 299 301 300 296 303 304 301 302 303 305 308 306 301 298 298 305 299 312 1 353 7 8 20 28